Details From EFHK - Helsinki Vantaa
To LOWI - Innsbruck Kranebitten
Flight Number -
Tags Generated
Created
Modified
Stats Distance 918 nm / 1,701 km
Max Altitude 0 ft / 0 m
Waypoints 6
Social Downloads 2
Likes 0
Share VATSIM

Download

Looking for another format? Having issues loading an existing format? Contact us
Advertisement - Login to hide

Notes

Generated

Route

EFHK DESON MAPEX HDO NORIN LOWI

ID Type Via Altitude Latitude Longitude Leg Dist Tot Dist Heading (true) Name
O EFHK APT - 0 ft / 0 m 60.33028˚ 24.96450˚ - 0 nm - -
DESON FIX - 0 ft / 0 m 56.89472˚ 20.42028˚ 250 nm 250 nm 217° / 213° -
MAPEX FIX - 0 ft / 0 m 53.70611˚ 17.00361˚ 224 nm 474 nm 213° / 210° -
HDO VOR - 0 ft / 0 m 50.92815˚ 14.36880˚ 192 nm 667 nm 211° / 209° HERMSDORF VOR-DME
NORIN FIX - 0 ft / 0 m 47.38710˚ 11.38843˚ 242 nm 910 nm 210° / 208° -
O LOWI APT - 0 ft / 0 m 47.25883˚ 11.33091˚ 8 nm 918 nm 197° / 197° -

Altitude Profile

Advertisement - Login to hide

Weather


0- 5 10 15 20 25 30 35+ Temperature / ° C

Clouds and Precipitation
Forecast for 2018-05-27 12:00 UTC. Updated an hour ago

Ground ~20,000 ft ~40,000 ft Winds

EFHK

Details ICAO EFHK (HEL)
Name Helsinki Vantaa
Region Finland
Timezone Europe/Helsinki (UTC+3.0)
Stats Elevation 179 ft / 55 m (AMSL)
Location 60.320569° 24.952668°
Runways 3
Magnetic Variation 9.024° E

METAR

EFHK 271220Z 32012KT CAVOK 20/01 Q1029 NOSIG

Decode

TAF

TAF EFHK 271134Z 2712/2812 01009KT CAVOK= TAF EFJY 271127Z 2712/2812 34007KT CAVOK

Decode

Departure Runways

ID Width Length Bearing (true) Bearing (mag) Surface Threshold Offset Overrun Length
04L 197 ft / 60 m 9,817 ft / 2,992 m 47.43° 38.41° Asphalt 800 ft / 244 m 0 ft / 0 m
04R 197 ft / 60 m 10,472 ft / 3,192 m 47.46° 38.44° Asphalt 262 ft / 80 m 0 ft / 0 m
15 197 ft / 60 m 9,497 ft / 2,895 m 153.08° 144.06° Asphalt 0 ft / 0 m 198 ft / 60 m
22L 197 ft / 60 m 10,472 ft / 3,192 m 227.50° 218.48° Asphalt 0 ft / 0 m 197 ft / 60 m
22R 197 ft / 60 m 9,817 ft / 2,992 m 227.46° 218.44° Asphalt 912 ft / 278 m 0 ft / 0 m
33 197 ft / 60 m 9,497 ft / 2,895 m 333.10° 324.08° Asphalt 0 ft / 0 m 197 ft / 60 m

LOWI

Details ICAO LOWI (INN)
Name Innsbruck Kranebitten
Region Austria
Timezone Europe/Vienna (UTC+2.0)
Stats Elevation 1,906 ft / 581 m (AMSL)
Location 47.260226° 11.343967°
Runways 1
Magnetic Variation 3.072° E

METAR

LOWI 271220Z VRB03KT 9999 FEW060 FEW060CB SCT130 BKN300 26/13 Q1018 TEMPO FM1300 TSRA SCT060 FEW060CB BKN120

Decode

TAF

TAF LOWI 271115Z 2712/2812 09005KT 9999 FEW060 SCT150 BKN250 TX28/2812Z TN14/2804Z TEMPO 2712/2718 09013KT TSRA SCT070 FEW070CB PROB30 TEMPO 2714/2719 VRB15G25KT TSGR SCT060CB BKN080 BECMG 2719/2721 VRB02KT CAVOK BECMG 2804/2806 27007KT BECMG 2809/2811 12012G25KT FEW070 BKN300

Decode

Destination Runways

ID Width Length Bearing (true) Bearing (mag) Surface Threshold Offset Overrun Length
08 148 ft / 45 m 6,545 ft / 1,995 m 81.02° 77.95° Asphalt 338 ft / 103 m 0 ft / 0 m
26 148 ft / 45 m 6,545 ft / 1,995 m 261.04° 257.97° Asphalt 0 ft / 0 m 0 ft / 0 m

Approach Navaids

Runway Type Ident Frequency Range Bearing (true) Bearing (mag) Slope Elevation
26 Localiser OEV 111.10 MHz 27 nm / 50 km 256.00° 252.93° - 1,906 ft / 581 m (AMSL)
26 Localiser OEJ 109.70 MHz 30 nm / 56 km 69.00° 65.93° - 1,906 ft / 581 m (AMSL)
26 Glidescope OEV 111.10 MHz 18 nm / 33 km 256.00° 252.93° 3.80° 1,911 ft / 582 m (AMSL)
26 DME OEJ 109.70 MHz 30 nm / 56 km - - - 1,906 ft / 581 m (AMSL)
26 DME OEV 111.10 MHz 27 nm / 50 km - - - 1,911 ft / 582 m (AMSL)

Popular Alternatives